Temperature
15 16 16 16 16 16 16 16 16 16 16 16 17 17 17 17 17 17 17 17 17 17 17 16 16 16 16 16 16 16 15 15 15 15 15 15 15 15 15 15 15 14 15
15 15 16 16 16 16 16 16 16 16 16 16 16 16 16 16 16 16 16 16 16 16 16 16 16 16 16 16 16 15 15 15 15 15 15 15 15 15 15 15 15 14 15
15 15 15 16 16 16 16 16 16 16 16 16 16 16 16 16 16 16 16 16 16 16 16 16 16 16 16 16 15 15 15 15 15 15 15 14 14 15 15 15 15 15 15
15 15 15 15 16 16 16 16 16 16 16 16 16 16 16 16 16 16 16 16 16 16 16 16 16 16 16 16 15 15 15 15 15 15 14 14 14 14 15 15 15 14 15
14 15 15 15 15 15 16 16 16 16 16 16 16 16 16 16 16 16 16 16 16 16 16 16 16 16 16 15 15 15 15 15 15 15 14 14 14 14 14 14 14 14 14
14 14 15 15 15 15 15 15 15 15 16 16 16 16 16 16 16 16 16 16 16 16 16 16 16 15 15 15 15 15 15 15 15 14 14 14 14 14 14 14 14 14 14
14 14 14 15 15 15 15 15 15 15 15 15 16 16 16 16 16 16 16 16 15 15 15 15 15 15 15 15 15 15 15 15 14 14 14 14 14 14 14 14 14 14 14
14 14 14 14 14 14 14 15 15 15 15 15 15 15 15 15 15 15 15 15 15 15 15 15 15 15 15 15 15 15 15 15 14 14 14 14 14 14 14 14 14 14 14
13 13 14 14 14 14 14 14 14 14 15 15 15 15 15 15 15 15 15 15 15 15 15 15 15 15 15 15 15 15 15 15 14 13 14 14 14 14 14 14 14 14 14
13 13 13 14 14 14 14 14 14 14 14 14 14 14 14 14 15 15 15 15 15 15 15 15 15 15 15 15 15 15 14 14 14 13 13 14 14 14 14 14 14 14 14
13 13 13 13 14 14 14 14 14 14 14 14 14 14 14 14 14 14 14 14 14 14 15 15 15 15 15 15 15 14 14 14 14 13 13 14 14 14 14 14 14 14 14
13 13 13 13 13 13 13 13 13 13 13 13 13 13 13 13 13 14 14 14 14 14 14 14 14 14 14 14 14 14 14 14 13 13 14 14 14 14 14 14 14 14 14
12 13 13 13 13 13 13 13 13 13 13 13 13 13 13 13 13 13 13 13 13 13 13 14 14 14 14 14 14 14 14 13 13 13 13 14 14 14 14 14 14 14 14
12 12 12 12 12 12 12 12 12 12 12 12 12 12 12 13 13 13 13 13 13 13 13 13 13 13 13 13 13 13 13 13 13 13 13 14 14 14 14 14 14 14 14
12 12 12 12 12 12 12 12 12 12 12 12 12 12 12 12 12 12 12 12 12 12 12 12 12 12 13 13 13 13 13 13 13 13 13 14 14 14 14 14 13 13 13
11 11 11 11 11 11 11 11 11 11 11 11 11 11 11 11 12 12 12 12 12 12 12 12 12 12 12 12 13 13 13 13 13 13 13 13 14 14 13 13 13 13 13
11 11 11 11 11 11 11 11 11 11 11 11 11 11 11 11 11 11 11 11 11 11 11 11 11 11 12 12 12 12 12 12 12 12 12 13 13 13 13 13 13 13 13
10 10 10 10 10 10 10 10 10 10 10 10 10 10 10 10 10 10 10 11 11 11 11 11 11 11 11 11 12 12 12 12 12 12 12 12 13 13 13 13 13 13 13
10 10 10 10 10 10 10 10 10 10 10 10 10 10 10 10 10 10 10 10 10 10 10 10 10 10 11 11 11 11 11 11 12 12 12 12 12 12 12 13 13 12 12
10 10 10 9 9 9 9 9 9 9 9 9 9 9 9 9 9 9 9 9 9 9 10 10 10 10 10 10 10 11 11 11 11 11 11 11 11 12 12 12 12 12 12
9 9 9 9 9 9 9 9 9 9 9 9 8 8 8 8 9 9 9 9 9 9 9 9 9 9 9 9 10 10 10 10 10 10 11 11 11 11 11 11 11 11 12
9 9 9 9 9 9 9 9 8 8 8 8 8 8 8 8 8 8 8 8 8 8 8 8 8 8 8 8 8 8 9 10 10 10 10 10 10 10 10 11 11 11 11
9 9 9 9 8 8 8 8 8 8 8 8 8 8 8 7 7 7 7 7 7 7 7 7 7 7 7 7 7 7 8 9 9 9 9 9 10 10 10 10 10 10 10
9 8 8 8 8 8 8 8 7 7 7 7 7 7 7 7 7 7 7 7 7 6 6 6 6 6 6 6 6 6 6 6 7 8 8 9 9 9 9 9 9 9 9
8 8 8 8 8 8 7 7 7 7 7 7 7 7 7 6 6 6 6 6 6 6 6 6 6 6 6 6 5 6 6 5 5 6 7 7 8 8 8 8 8 8 8
8 8 8 8 7 7 7 7 7 7 6 6 6 6 6 6 6 6 6 5 5 5 5 5 5 5 5 5 5 5 5 4 4 4 5 5 6 7 7 7 7 7 7
Wind_Speed
2 3 5 4 5 5 5 5 6 6 6 5 5 4 4 4 4 4 4 4 4 4 4 4 4 5 5 5 6 6 6 6 6 7 7 7 7 7 7 6 4 7 9
1 2 4 5 5 5 5 5 5 5 5 4 3 3 3 3 3 3 3 4 4 4 4 4 4 4 4 5 6 6 6 6 6 6 5 6 6 5 6 5 3 7 7
3 4 5 6 5 6 5 5 5 4 4 4 3 2 2 2 2 2 3 3 3 3 4 4 4 4 4 5 5 5 6 6 5 4 3 4 6 5 5 5 4 6 6
4 4 6 7 6 6 5 5 5 4 4 3 3 2 2 1 0 1 2 2 3 3 4 4 4 4 4 5 5 5 6 6 5 4 4 3 4 5 4 5 5 5 5
5 5 7 7 7 7 6 5 4 4 3 3 3 2 2 2 1 1 0 1 2 4 4 5 5 5 5 6 6 6 6 6 6 6 3 3 3 4 4 4 4 4 4
5 6 7 7 7 7 6 6 5 4 3 3 3 3 3 3 3 2 2 1 1 3 5 5 6 5 6 7 7 8 8 8 8 6 4 4 4 5 4 4 4 4 4
5 6 7 7 7 7 6 6 6 5 5 4 3 3 3 3 3 3 3 2 2 3 5 6 6 7 7 7 8 9 9 9 8 6 5 5 4 4 6 5 5 5 5
6 6 6 8 7 7 7 6 6 6 6 6 6 5 4 3 4 4 3 3 3 4 5 6 7 7 8 8 9 9 10 10 9 8 7 6 5 6 7 7 6 7 6
8 7 7 6 6 7 7 7 7 7 6 6 6 6 6 5 4 4 4 4 4 4 5 6 7 8 8 9 10 10 10 12 11 8 8 7 6 9 9 9 8 8 8
8 8 7 7 7 6 5 7 7 7 7 7 6 6 6 4 3 3 4 4 5 5 5 6 7 8 9 10 11 11 11 12 12 10 9 8 8 11 11 11 11 10 10
8 7 7 7 7 7 6 6 6 6 6 6 5 5 4 4 4 3 4 5 5 5 6 6 7 8 10 11 12 12 12 11 11 10 9 8 10 12 13 13 12 12 12
7 8 7 7 7 7 6 5 4 5 5 5 6 6 5 5 4 5 4 4 5 6 6 6 7 9 10 9 10 12 11 12 11 10 10 9 12 14 14 14 14 14 14
6 7 7 7 7 7 6 5 5 4 5 5 6 7 6 5 4 4 4 4 5 5 5 5 6 7 8 8 8 9 10 11 9 10 10 11 14 15 16 16 16 15 15
5 6 7 8 7 7 6 5 5 5 5 5 6 7 6 4 4 4 4 5 5 5 5 6 6 7 8 9 9 9 10 9 9 10 10 11 14 16 16 17 17 17 17
5 6 7 7 7 7 6 5 5 5 5 6 6 7 7 5 4 5 4 4 5 5 6 6 6 7 8 8 9 10 10 11 11 11 10 12 15 16 17 17 17 17 18
5 5 6 7 7 7 6 5 5 6 6 6 6 8 8 6 5 5 5 5 5 6 6 7 7 7 7 7 9 10 11 11 12 12 12 11 15 16 17 18 18 18 18
4 4 5 6 7 6 6 6 5 5 6 6 6 8 9 8 7 6 5 5 6 7 7 7 7 7 7 7 9 10 10 11 11 12 12 11 11 15 17 18 18 18 18
3 4 5 5 6 6 6 5 5 5 6 6 7 7 9 9 8 6 5 5 7 7 6 6 6 7 7 7 8 9 9 9 11 11 11 11 10 10 13 16 17 17 17
2 3 4 5 6 6 5 5 5 5 6 6 7 7 9 9 9 7 5 6 7 6 5 6 6 6 7 8 9 9 9 9 10 10 11 11 10 10 10 12 15 16 16
2 3 4 4 5 5 4 3 3 4 5 6 7 8 9 9 9 7 5 7 7 5 5 6 7 7 7 8 9 9 8 9 8 8 9 9 9 10 10 10 10 12 15
1 1 3 4 5 4 3 3 3 4 4 5 6 8 9 9 9 7 6 6 6 5 6 7 7 8 6 7 7 7 7 7 7 6 6 6 6 7 7 9 8 8 9
1 0 1 2 3 4 3 3 2 3 3 4 5 6 8 9 9 7 7 6 6 5 6 7 7 6 5 5 5 6 6 5 4 5 5 5 6 5 5 6 6 7 7
2 1 1 1 2 3 3 2 2 1 2 2 4 5 7 8 8 8 8 7 6 5 5 6 7 6 6 5 4 4 5 5 6 5 5 4 4 4 4 4 5 5 6
4 3 2 1 1 1 1 2 2 2 3 3 4 4 5 7 7 8 7 7 6 5 6 6 6 6 6 5 5 4 5 6 6 6 5 5 5 6 6 4 5 4 5
4 4 3 2 2 2 1 1 2 2 2 2 3 4 5 5 6 7 7 6 6 5 6 6 6 6 5 5 5 5 5 5 6 7 7 7 6 5 6 6 5 4 5
5 4 4 4 3 3 2 2 2 2 2 3 3 4 4 4 4 6 6 6 6 5 6 6 6 6 5 5 5 4 4 4 5 6 7 9 8 6 6 5 5 5 5
Wind_Direction
45 28 47 50 74 79 81 81 79 83 92 101 110 122 134 141 143 146 149 148 149 146 140 135 130 126 123 122 121 121 118 112 106 100 95 99 101 103 101 102 116 109 100
37 59 72 62 77 76 74 77 78 80 82 87 97 114 123 143 156 163 171 166 166 167 163 158 151 145 140 132 129 124 122 119 111 104 107 114 105 109 109 99 60 96 109
63 72 84 65 72 75 71 70 69 74 75 73 71 81 97 111 149 181 187 182 181 182 179 176 169 162 157 150 146 140 139 134 129 131 178 155 126 119 120 120 112 110 113
73 78 72 61 63 70 67 68 63 61 61 59 59 58 50 27 142 173 193 203 198 193 189 188 186 181 175 169 167 163 157 154 152 183 192 161 147 131 137 132 133 127 124
80 76 68 56 56 59 57 59 59 54 49 43 40 40 29 10 352 298 225 231 217 207 201 199 195 193 190 188 187 184 178 174 179 206 196 187 177 145 166 160 152 144 144
74 66 69 55 53 53 52 50 47 42 33 29 30 27 16 360 352 338 321 309 253 224 216 211 206 205 201 199 200 198 193 194 202 208 209 205 197 167 191 182 174 171 169
70 60 64 54 53 52 49 45 41 35 31 25 16 12 5 357 348 336 325 311 268 248 230 223 218 217 212 210 210 207 201 204 218 217 217 214 206 193 207 201 197 193 191
65 56 58 54 51 49 48 44 39 33 32 27 21 12 1 352 349 342 325 306 283 260 249 235 228 225 219 216 216 214 208 209 222 227 223 221 207 213 217 213 213 211 206
58 52 49 46 46 46 45 42 38 34 31 25 20 16 8 360 350 340 332 315 293 278 263 253 238 230 226 222 219 217 214 217 232 229 228 226 208 217 220 220 221 218 217
53 46 40 37 35 32 35 39 34 36 34 26 21 14 2 351 343 337 322 327 310 290 277 264 252 236 231 228 225 220 216 219 234 235 231 223 210 221 224 227 227 222 222
46 39 33 30 28 25 25 27 29 35 35 26 24 17 351 335 332 323 343 341 326 305 285 272 262 250 238 229 225 221 220 230 234 238 235 220 218 227 230 231 232 231 229
37 30 26 24 22 21 20 18 17 22 22 15 8 360 345 341 339 334 338 336 325 314 290 275 264 252 245 240 228 221 230 235 238 236 234 220 227 232 235 235 235 235 234
35 30 25 20 20 19 14 14 13 11 9 5 4 357 347 344 339 336 328 322 315 308 299 290 270 264 261 254 248 238 240 240 239 238 234 217 230 236 238 238 237 236 235
40 31 25 21 21 19 16 16 15 12 8 3 359 356 352 347 339 336 328 326 321 315 308 298 288 280 272 266 258 253 248 245 243 242 238 219 229 237 240 242 240 238 237
40 29 23 20 21 18 17 15 15 13 8 4 3 359 355 348 337 331 326 326 322 321 311 301 292 289 280 274 267 262 257 253 250 246 242 222 226 235 241 243 243 242 241
38 27 20 22 20 19 20 18 15 12 9 6 8 4 358 352 342 332 327 327 324 321 314 303 297 291 285 277 272 267 264 261 257 253 249 236 227 232 239 244 245 246 245
37 28 21 20 19 19 20 18 17 14 11 13 9 6 3 357 347 339 330 327 327 321 314 307 302 295 288 282 276 271 267 263 261 257 252 249 240 231 233 241 246 248 248
36 29 23 19 17 16 15 14 17 17 15 13 9 6 4 1 353 345 338 333 330 323 319 312 306 298 291 287 283 277 270 265 262 260 255 250 248 243 233 234 241 246 250
36 29 25 21 16 12 10 14 22 21 19 14 11 8 2 360 357 351 343 338 334 329 324 317 309 303 296 293 288 280 273 267 263 260 255 251 247 248 248 236 233 241 247
47 32 25 21 15 8 7 10 20 25 20 18 15 9 4 2 358 352 346 343 341 333 329 324 315 307 301 302 294 287 279 271 265 259 259 256 251 248 249 251 243 240 240
85 37 27 18 14 11 6 359 0 7 7 11 12 9 5 2 0 359 352 347 345 336 331 327 319 312 312 316 300 294 283 271 265 268 266 262 261 261 263 260 257 253 246
203 350 18 16 13 14 9 356 347 339 348 359 3 7 5 3 2 1 358 351 349 340 340 338 333 319 314 323 308 299 294 280 269 273 267 266 270 271 274 277 270 263 259
221 241 300 347 360 9 4 1 353 343 329 346 355 357 1 2 3 2 358 353 350 346 341 339 336 328 317 315 313 300 297 292 308 278 279 282 292 289 281 280 288 292 282
223 224 233 261 306 338 346 349 347 334 331 334 336 342 350 359 2 1 357 354 350 346 342 337 337 326 319 314 307 301 293 297 290 291 283 287 298 295 290 286 283 289 294
219 217 223 233 251 265 277 293 301 307 319 324 331 338 346 355 360 0 356 352 347 343 340 337 334 330 322 314 312 308 296 294 286 280 286 297 298 292 296 290 283 289 294
220 219 223 228 238 243 245 255 267 285 302 314 327 333 337 340 345 354 350 348 344 340 336 332 329 327 324 319 315 312 305 299 301 289 282 294 295 295 296 290 286 293 303
Height
1541 1541 1541 1542 1542 1543 1543 1543 1543 1544 1544 1544 1544 1543 1543 1543 1543 1542 1542 1542 1541 1541 1540 1540 1539 1539 1538 1538 1538 1537 1537 1537 1536 1536 1536 1536 1536 1536 1536 1536 1536 1536 1536
1541 1541 1541 1542 1542 1543 1543 1543 1543 1544 1544 1544 1544 1543 1543 1543 1543 1542 1542 1542 1541 1541 1540 1540 1540 1539 1539 1539 1538 1538 1537 1537 1537 1537 1537 1537 1536 1536 1536 1536 1536 1537 1536
1540 1541 1541 1541 1542 1542 1543 1543 1543 1543 1543 1543 1543 1543 1543 1543 1542 1542 1542 1541 1541 1541 1540 1540 1540 1539 1539 1539 1538 1538 1538 1538 1537 1537 1537 1538 1537 1537 1537 1537 1537 1536 1536
1540 1541 1541 1541 1542 1542 1542 1542 1543 1543 1543 1543 1542 1542 1542 1542 1542 1541 1541 1541 1541 1540 1540 1540 1540 1539 1539 1539 1538 1538 1538 1538 1537 1537 1538 1539 1538 1537 1537 1537 1536 1536 1536
1540 1540 1541 1541 1541 1541 1542 1542 1542 1542 1542 1542 1541 1541 1541 1541 1541 1541 1540 1540 1540 1539 1539 1539 1539 1539 1539 1538 1538 1538 1538 1537 1537 1537 1538 1538 1538 1537 1536 1536 1536 1536 1536
1540 1540 1540 1540 1541 1541 1541 1541 1541 1541 1541 1540 1540 1540 1540 1540 1540 1539 1539 1539 1538 1538 1538 1538 1538 1538 1538 1538 1537 1537 1537 1537 1537 1537 1537 1537 1537 1536 1536 1536 1536 1536 1536
1540 1540 1540 1540 1540 1540 1540 1540 1539 1539 1539 1539 1539 1539 1538 1538 1538 1538 1538 1537 1537 1537 1537 1537 1536 1536 1536 1536 1536 1536 1536 1536 1536 1537 1536 1536 1536 1535 1535 1535 1535 1535 1535
1539 1539 1539 1539 1539 1539 1539 1538 1538 1538 1538 1537 1537 1537 1537 1536 1536 1536 1536 1535 1535 1535 1535 1535 1535 1535 1535 1535 1535 1535 1535 1535 1535 1535 1535 1535 1534 1534 1534 1534 1534 1534 1534
1539 1539 1539 1539 1538 1538 1538 1537 1537 1536 1536 1536 1535 1535 1535 1534 1534 1534 1533 1533 1533 1533 1533 1533 1533 1533 1533 1533 1533 1533 1533 1533 1534 1534 1533 1533 1533 1533 1533 1533 1533 1533 1533
1538 1538 1538 1538 1537 1537 1537 1536 1535 1535 1535 1534 1534 1533 1533 1532 1532 1531 1531 1531 1530 1530 1530 1530 1530 1530 1530 1530 1531 1531 1531 1531 1531 1532 1531 1531 1531 1531 1531 1531 1531 1532 1532
1538 1538 1537 1537 1536 1536 1535 1535 1534 1533 1533 1532 1532 1531 1531 1530 1530 1529 1528 1528 1528 1527 1527 1527 1527 1527 1527 1528 1528 1528 1528 1528 1529 1529 1529 1528 1528 1529 1529 1529 1529 1530 1530
1537 1537 1536 1536 1535 1534 1534 1533 1533 1532 1531 1530 1530 1529 1529 1528 1527 1526 1526 1525 1525 1524 1524 1524 1524 1524 1524 1524 1524 1525 1525 1525 1526 1525 1525 1525 1525 1526 1526 1527 1527 1527 1527
1536 1536 1535 1535 1534 1533 1533 1532 1531 1530 1529 1529 1528 1527 1526 1526 1525 1524 1523 1523 1522 1521 1521 1521 1521 1521 1521 1521 1521 1521 1521 1521 1522 1522 1522 1521 1522 1523 1523 1523 1524 1524 1524
1536 1535 1535 1534 1533 1532 1532 1531 1530 1529 1528 1527 1526 1525 1524 1524 1523 1522 1521 1520 1519 1519 1518 1518 1517 1517 1517 1517 1517 1517 1517 1517 1517 1517 1517 1517 1518 1519 1519 1520 1520 1521 1521
1535 1535 1534 1533 1532 1531 1530 1529 1528 1527 1526 1525 1524 1523 1522 1522 1521 1520 1519 1518 1517 1516 1515 1514 1514 1514 1513 1513 1513 1513 1513 1513 1513 1513 1512 1513 1514 1514 1515 1516 1516 1517 1517
1534 1534 1533 1532 1531 1530 1529 1528 1527 1526 1524 1523 1522 1521 1520 1519 1518 1517 1516 1515 1514 1513 1512 1512 1511 1510 1509 1509 1508 1508 1508 1508 1508 1508 1508 1508 1508 1509 1510 1511 1512 1512 1513
1534 1533 1532 1531 1530 1529 1528 1527 1526 1524 1523 1522 1521 1520 1518 1517 1516 1515 1514 1512 1511 1510 1509 1509 1508 1507 1506 1505 1504 1504 1503 1503 1503 1503 1503 1503 1503 1504 1505 1505 1506 1507 1508
1533 1532 1532 1531 1529 1528 1527 1526 1525 1523 1522 1520 1519 1518 1516 1515 1514 1512 1511 1510 1509 1508 1506 1505 1504 1503 1502 1501 1500 1499 1499 1498 1497 1497 1497 1498 1498 1498 1499 1500 1501 1502 1502
1532 1531 1530 1529 1528 1527 1526 1525 1523 1522 1521 1519 1518 1516 1514 1513 1511 1510 1508 1507 1506 1504 1503 1502 1501 1500 1498 1497 1496 1494 1494 1493 1493 1492 1492 1492 1492 1493 1493 1494 1495 1496 1497
1531 1530 1530 1529 1527 1526 1525 1524 1523 1521 1520 1518 1516 1514 1513 1511 1509 1508 1506 1504 1503 1501 1500 1499 1497 1496 1495 1493 1492 1490 1489 1488 1487 1487 1487 1487 1487 1487 1487 1488 1489 1489 1490
1530 1529 1529 1528 1527 1525 1524 1523 1521 1520 1518 1517 1515 1513 1511 1509 1507 1505 1504 1502 1500 1499 1497 1496 1494 1493 1491 1490 1488 1486 1485 1484 1483 1482 1481 1482 1482 1482 1482 1482 1483 1483 1484
1528 1528 1527 1526 1525 1524 1523 1522 1520 1519 1517 1515 1514 1512 1510 1507 1505 1504 1502 1500 1498 1496 1494 1493 1491 1490 1488 1487 1486 1484 1482 1481 1479 1478 1478 1477 1477 1477 1477 1477 1477 1477 1477
1527 1527 1526 1525 1524 1523 1522 1520 1519 1517 1515 1514 1512 1510 1508 1506 1504 1502 1500 1498 1496 1494 1492 1490 1489 1487 1486 1485 1484 1484 1482 1479 1476 1475 1474 1473 1473 1472 1472 1471 1471 1471 1471
1525 1525 1524 1523 1522 1521 1520 1518 1517 1515 1514 1512 1510 1508 1506 1504 1502 1500 1498 1496 1494 1492 1490 1488 1486 1485 1483 1482 1481 1480 1480 1478 1476 1472 1471 1470 1469 1468 1468 1467 1466 1466 1466
1523 1522 1522 1521 1520 1519 1518 1516 1515 1513 1512 1510 1508 1506 1504 1502 1500 1498 1496 1494 1492 1490 1488 1486 1484 1482 1481 1479 1478 1477 1476 1475 1473 1471 1468 1466 1465 1464 1463 1462 1462 1461 1461
1520 1519 1519 1518 1517 1516 1515 1514 1512 1511 1509 1507 1506 1504 1502 1500 1498 1496 1493 1491 1489 1487 1485 1483 1481 1480 1478 1476 1475 1474 1473 1472 1470 1468 1466 1463 1461 1460 1459 1458 1457 1457 1456